Zurück zum Katalog

FENGYUN 1C DEB

AktivPO
NORAD 31670·DEBRIS·🇨🇳 China

Gestartet May 10, 1999 von Taiyuan Satellite Launch Center

Loading…

Nächste Überflüge (nächste 24 Stunden)

TLE

AlterndSource: Space-Track

Epoche: Sep 4, 2026, 19:28 UTC

1 31670U 99025CCC 26247.81140405  .00001071  00000-0  97126-3 0  9993
2 31670  98.4163  95.8068 0244517 305.4390  52.4152 13.72903166659628

Verfolge FENGYUN 1C DEB in Echtzeit mit AllMySat

Download on the App Store